Lima, OH

7:21 AM EDT on July 28, 2017 (GMT -0400)
Lima Allen County

Weather History for KAOH - December, 2012

Change the Weather History Date:

Wednesday, December 5, 2012

  Actual Average (KFDY) Record (KFDY)
Temperature  
Mean Temperature 34 °F -  
Max Temperature 42 °F 39 °F 68 °F (2001)
Min Temperature 26 °F 27 °F 3 °F (1976)
Degree Days  
Heating Degree Days 30    
Moisture  
Dew Point 26 °F    
Average Humidity 73    
Maximum Humidity 86    
Minimum Humidity 59    
Precipitation  
Precipitation 0.00 in - - ()
Sea Level Pressure  
Sea Level Pressure 30.34 in    
Wind  
Wind Speed 9 mph (NNE)    
Max Wind Speed 13 mph    
Max Gust Speed 21 mph    
Visibility 10 miles    
Events      
Averages and records for this station are not official NWS values.
T = Trace of Precipitation, MM = Missing Value Source: NWS Daily Summary

Daily Weather History Graph

Daily Weather History Graph

Search for Another Location

Airport or City:

Trip Planner

Search our weather history database for the weather conditions in past years. The results will help you decide how hot, cold, wet, or windy it might be!

Date:

Astronomy

Dec. 05, 2012 Rise Set
Actual Time 7:45 AM EST 5:08 PM EST
Civil Twilight 7:14 AM EST 5:39 PM EST
Nautical Twilight 6:40 AM EST 6:13 PM EST
Astronomical Twilight 6:07 AM EST 6:46 PM EST
Moon 11:58 PM EST (12/5) 12:06 PM EST (12/5)
Length of Visible Light 10h 24m
Length of Day
9h 23m
Waning Gibbous, 60% of the Moon is Illuminated
Dec 5
Waning Gibbous
Dec 6
Last Quarter
Dec 13
New
Dec 20
First Quarter
Dec 28
Full

Hourly Weather History & Observations

Time (EST) Temp. Windchill Dew Point Humidity Pressure Visibility Wind Dir Wind Speed Gust Speed Precip Events Conditions
12:53 AM 39.9 °F 33.9 °F 36.0 °F 86% 30.19 in 10.0 mi West 9.2 mph - N/A   Clear
1:53 AM 42.1 °F 36.6 °F 35.1 °F 76% 30.20 in 10.0 mi West 9.2 mph - N/A   Clear
2:53 AM 37.9 °F 32.1 °F 33.1 °F 83% 30.23 in 10.0 mi WNW 8.1 mph - N/A   Clear
3:53 AM 39.9 °F 33.4 °F 33.1 °F 77% 30.25 in 10.0 mi NW 10.4 mph - N/A   Clear
4:53 AM 37.9 °F 30.5 °F 32.0 °F 79% 30.25 in 10.0 mi NNW 11.5 mph - N/A   Clear
5:53 AM 37.0 °F 30.4 °F 30.0 °F 76% 30.27 in 10.0 mi NNW 9.2 mph - N/A   Clear
6:53 AM 36.0 °F 32.1 °F 28.9 °F 76% 30.31 in 10.0 mi North 4.6 mph - N/A   Clear
7:53 AM 34.0 °F 28.0 °F 28.0 °F 79% 30.34 in 10.0 mi NNW 6.9 mph - N/A   Clear
9:53 AM 35.1 °F 26.4 °F 25.0 °F 67% 30.40 in 10.0 mi North 12.7 mph - N/A   Clear
10:53 AM 35.1 °F 27.4 °F 26.1 °F 70% 30.41 in 10.0 mi North 10.4 mph - N/A   Partly Cloudy
11:11 AM 33.8 °F 24.8 °F 26.6 °F 75% 30.38 in 10.0 mi North 12.7 mph 20.7 mph N/A   Mostly Cloudy
11:35 AM 33.8 °F 24.8 °F 24.8 °F 70% 30.38 in 10.0 mi North 12.7 mph - N/A   Partly Cloudy
11:53 AM 35.1 °F 26.4 °F 24.1 °F 64% 30.40 in 10.0 mi NNE 12.7 mph - N/A   Partly Cloudy
12:53 PM 36.0 °F 29.6 °F 25.0 °F 64% 30.38 in 10.0 mi NE 8.1 mph - N/A   Clear
1:53 PM 36.0 °F 30.3 °F 24.1 °F 62% 30.37 in 10.0 mi North 6.9 mph - N/A   Clear
2:53 PM 37.0 °F 31.6 °F 24.1 °F 59% 30.37 in 10.0 mi North 6.9 mph - N/A   Clear
3:53 PM 36.0 °F 29.6 °F 23.0 °F 59% 30.37 in 10.0 mi NE 8.1 mph - N/A   Clear
4:53 PM 34.0 °F 28.0 °F 23.0 °F 64% 30.39 in 10.0 mi East 6.9 mph - N/A   Clear
5:53 PM 32.0 °F 28.7 °F 24.1 °F 73% 30.40 in 10.0 mi ENE 3.5 mph - N/A   Clear
6:53 PM 30.0 °F 26.5 °F 23.0 °F 75% 30.39 in 10.0 mi ENE 3.5 mph - N/A   Clear
7:53 PM 28.9 °F 22.8 °F 21.9 °F 75% 30.38 in 10.0 mi East 5.8 mph - N/A   Clear
8:53 PM 28.0 °F 21.7 °F 21.0 °F 75% 30.37 in 10.0 mi East 5.8 mph - N/A   Clear
9:53 PM 27.0 °F 21.6 °F 21.9 °F 81% 30.38 in 10.0 mi East 4.6 mph - N/A   Clear
10:53 PM 27.0 °F 23.0 °F 21.0 °F 78% 30.37 in 10.0 mi East 3.5 mph - N/A   Clear
11:53 PM 26.1 °F 18.4 °F 19.9 °F 78% 30.35 in 10.0 mi East 6.9 mph - N/A   Clear